TimeEST,TemperatureF,Dew PointF,Humidity,Sea Level PressureIn,VisibilityMPH,Wind Direction,Wind SpeedMPH,Gust SpeedMPH,PrecipitationIn,Events,Conditions,WindDirDegrees,DateUTC
12:53 AM,37.0,33.1,86,29.75,10.0,SW,4.6,-,N/A,,Clear,220,2011-12-30 05:53:00
1:53 AM,37.0,33.1,86,29.76,10.0,SW,4.6,-,N/A,,Clear,230,2011-12-30 06:53:00
2:53 AM,37.0,33.1,86,29.78,10.0,SW,4.6,-,N/A,,Clear,220,2011-12-30 07:53:00
3:53 AM,37.0,33.1,86,29.79,10.0,SW,4.6,-,N/A,,Clear,220,2011-12-30 08:53:00
4:53 AM,36.0,33.1,89,29.79,10.0,Calm,Calm,-,N/A,,Partly Cloudy,0,2011-12-30 09:53:00
5:53 AM,37.0,33.1,86,29.78,10.0,Calm,Calm,-,N/A,,Overcast,0,2011-12-30 10:53:00
7:53 AM,39.0,35.1,86,29.77,10.0,SE,3.5,-,0.00,,Overcast,140,2011-12-30 12:53:00
8:53 AM,39.9,35.1,83,29.77,10.0,SSE,4.6,-,N/A,,Overcast,150,2011-12-30 13:53:00
9:53 AM,41.0,36.0,82,29.75,7.0,SE,4.6,-,0.03,Rain,Light Rain,140,2011-12-30 14:53:00
10:29 AM,41.0,37.4,87,29.72,9.0,SE,6.9,-,0.02,,Overcast,140,2011-12-30 15:29:00
10:40 AM,42.8,37.4,81,29.72,9.0,SSE,8.1,-,0.02,,Overcast,160,2011-12-30 15:40:00
10:53 AM,42.1,39.0,89,29.73,10.0,SSE,8.1,-,0.02,,Overcast,150,2011-12-30 15:53:00
11:36 AM,42.8,39.2,87,29.68,9.0,SSE,9.2,-,N/A,,Overcast,150,2011-12-30 16:36:00
11:53 AM,44.1,39.9,85,29.67,8.0,SE,5.8,-,N/A,,Overcast,140,2011-12-30 16:53:00
12:16 PM,46.4,42.8,87,29.62,9.0,SSE,6.9,16.1,N/A,,Overcast,150,2011-12-30 17:16:00
12:28 PM,46.4,42.8,87,29.61,10.0,SSE,9.2,-,N/A,,Overcast,150,2011-12-30 17:28:00
1:35 PM,46.4,42.8,87,29.56,10.0,SSE,10.4,17.3,N/A,,Overcast,150,2011-12-30 18:35:00
1:53 PM,48.0,43.0,83,29.54,10.0,SE,11.5,19.6,N/A,,Overcast,140,2011-12-30 18:53:00
2:44 PM,46.4,42.8,87,29.52,2.5,SSE,4.6,-,0.04,Rain,Heavy Rain,150,2011-12-30 19:44:00
2:49 PM,46.4,42.8,87,29.52,1.8,SSE,6.9,-,0.07,Rain,Heavy Rain,150,2011-12-30 19:49:00
2:53 PM,46.9,43.0,86,29.53,1.5,South,5.8,-,0.08,Rain,Heavy Rain,170,2011-12-30 19:53:00
3:04 PM,46.4,42.8,87,29.51,2.5,Variable,4.6,-,0.03,Rain,Light Rain,0,2011-12-30 20:04:00
3:24 PM,46.4,42.8,87,29.51,3.0,ESE,6.9,-,0.06,Rain,Light Rain,120,2011-12-30 20:24:00
3:32 PM,46.4,42.8,87,29.51,3.0,SE,5.8,-,0.07,Rain,Light Rain,140,2011-12-30 20:32:00
3:53 PM,48.0,44.1,86,29.52,10.0,South,10.4,-,0.07,,Overcast,170,2011-12-30 20:53:00
4:53 PM,48.0,44.1,86,29.53,8.0,SSW,16.1,23.0,0.03,Rain,Light Rain,200,2011-12-30 21:53:00
5:53 PM,48.0,42.1,80,29.55,10.0,SW,13.8,23.0,0.00,,Overcast,220,2011-12-30 22:53:00
6:53 PM,46.0,42.1,86,29.58,10.0,SW,13.8,23.0,0.00,Rain,Light Rain,230,2011-12-30 23:53:00
7:00 PM,46.4,41.0,81,29.57,10.0,SW,13.8,21.9,0.00,Rain,Light Rain,220,2011-12-31 00:00:00
7:08 PM,46.4,41.0,81,29.58,10.0,SW,16.1,25.3,0.00,,Overcast,220,2011-12-31 00:08:00
7:53 PM,46.0,39.9,79,29.61,10.0,SW,15.0,23.0,0.00,,Overcast,220,2011-12-31 00:53:00
8:53 PM,45.0,39.0,80,29.62,10.0,SW,15.0,21.9,N/A,,Overcast,220,2011-12-31 01:53:00
9:53 PM,44.1,39.0,82,29.63,10.0,SW,10.4,-,N/A,,Overcast,220,2011-12-31 02:53:00
10:53 PM,43.0,39.0,86,29.65,10.0,SW,8.1,-,0.00,Rain,Light Rain,220,2011-12-31 03:53:00
11:51 PM,42.8,37.4,81,29.65,10.0,SW,9.2,-,0.00,Rain,Light Rain,230,2011-12-31 04:51:00
11:53 PM,43.0,37.9,82,29.66,10.0,SW,9.2,-,0.00,Rain,Light Rain,230,2011-12-31 04:53:00